N1JOT Weather Reports


Display with metric or nautical units.
time (UTC)temp
F
wind
direction
speed
MPH
gust
MPH
rain 1hr
in
rain 24hr
in
rain mn
in
humidity
%
barometer
mb
20260507145601 59 315 3.0 8.0 0.00 0.50 0.39 61 1008.4
20260507145104 58 237 2.0 8.0 0.00 0.50 0.39 60 1008.4
20260507144558 58 213 4.0 9.0 0.00 0.50 0.39 59 1008.3
20260507144100 58 350 3.0 9.0 0.00 0.50 0.39 61 1008.3
20260507143601 58 0 3.0 9.0 0.00 0.50 0.39 60 1008.3
20260507143101 58 0 3.0 8.0 0.00 0.50 0.39 65 1008.2
20260507142601 57 262 3.0 6.0 0.00 0.50 0.39 65 1008.3
20260507142102 57 221 1.0 8.0 0.00 0.50 0.39 70 1008.4
20260507141603 57 56 2.0 8.0 0.00 0.50 0.39 70 1008.5
20260507141101 56 312 4.0 8.0 0.00 0.50 0.39 69 1008.6
20260507140601 56 219 2.0 7.0 0.00 0.50 0.39 72 1008.6
20260507140059 56 255 2.0 9.0 0.00 0.50 0.39 74 1008.6
20260507135604 55 202 2.0 9.0 0.00 0.50 0.39 77 1008.7
20260507135104 54 305 3.0 9.0 0.00 0.50 0.39 79 1008.6
20260507134611 54 242 2.0 8.0 0.00 0.50 0.39 82 1008.5
20260507134101 54 306 2.0 8.0 0.00 0.50 0.39 86 1008.4
20260507133601 53 222 3.0 9.0 0.00 0.50 0.39 88 1008.6
20260507133101 53 251 2.0 9.0 0.00 0.50 0.39 89 1008.6
20260507132559 52 277 1.0 7.0 0.00 0.50 0.39 91 1008.8
20260507132059 51 229 2.0 7.0 0.00 0.50 0.39 91 1008.7
20260507131601 52 266 2.0 9.0 0.00 0.50 0.39 92 1008.6
20260507131102 51 304 2.0 9.0 0.00 0.50 0.39 92 1008.5
20260507130559 51 236 1.0 4.0 0.00 0.50 0.39 93 1008.7
20260507130110 51 0 1.0 5.0 0.00 0.50 0.39 94 1008.7
20260507125601 51 0 1.0 5.0 0.00 0.50 0.39 93 1008.6
20260507125103 50 284 2.0 5.0 0.00 0.50 0.39 93 1008.6
20260507124620 50 0 0.0 3.0 0.01 0.50 0.39 94 1008.7
20260507124101 50 0 0.0 3.0 0.01 0.50 0.39 93 1008.7
20260507123601 50 0 1.0 3.0 0.01 0.50 0.39 94 1008.7
20260507123110 49 0 0.0 2.0 0.01 0.50 0.39 94 1008.6
20260507122559 49 0 0.0 0.0 0.02 0.50 0.39 93 1009.0
20260507122057 49 0 0.0 1.0 0.02 0.50 0.39 94 1009.0
20260507121604 49 0 0.0 1.0 0.03 0.50 0.39 94 1009.0
20260507121059 49 0 0.0 3.0 0.03 0.50 0.39 94 1009.0
20260507120559 49 0 0.0 3.0 0.04 0.50 0.39 94 1008.7
20260507115559 48 0 0.0 0.0 0.04 0.50 0.39 94 1008.6
20260507115101 48 0 0.0 0.0 0.05 0.50 0.39 93 1008.6
20260507114604 48 0 0.0 1.0 0.04 0.49 0.38 93 1008.6
20260507114101 48 0 0.0 2.0 0.04 0.49 0.38 93 1008.7
20260507113601 47 0 0.0 2.0 0.04 0.49 0.38 93 1008.5
20260507113100 47 0 0.0 2.0 0.04 0.49 0.38 93 1008.6
20260507112601 47 223 0.0 3.0 0.03 0.48 0.37 93 1008.9
20260507112104 47 0 1.0 7.0 0.03 0.48 0.37 93 1008.9
20260507111558 47 232 1.0 7.0 0.03 0.47 0.36 93 1008.5
20260507111059 47 325 2.0 6.0 0.03 0.47 0.36 93 1008.4
20260507110559 48 306 0.0 2.0 0.02 0.46 0.35 93 1008.8
20260507105600 48 279 0.0 2.0 0.03 0.46 0.35 93 1008.7
20260507105059 48 298 0.0 5.0 0.02 0.45 0.34 93 1008.3
20260507104558 48 261 1.0 5.0 0.03 0.45 0.34 93 1008.1
20260507104059 48 14 0.0 2.0 0.03 0.45 0.34 93 1007.9
20260507103600 48 0 0.0 3.0 0.03 0.45 0.34 93 1008.1
20260507103114 48 0 0.0 4.0 0.03 0.45 0.34 93 1008.1
20260507102559 47 292 0.0 4.0 0.03 0.45 0.34 93 1008.5
20260507102100 48 0 0.0 3.0 0.03 0.45 0.34 93 1008.5
20260507101603 48 265 0.0 4.0 0.02 0.44 0.33 93 1008.4
20260507101100 48 0 1.0 4.0 0.03 0.44 0.33 93 1008.5
20260507100559 48 257 0.0 3.0 0.03 0.44 0.33 93 1008.7
20260507100113 48 295 1.0 3.0 0.02 0.43 0.32 93 1008.4
20260507095603 48 307 0.0 4.0 0.02 0.43 0.32 93 1008.2
20260507095101 48 309 0.0 4.0 0.02 0.43 0.32 93 1008.2
20260507094559 48 291 1.0 4.0 0.01 0.42 0.31 93 1008.1
20260507094059 48 279 1.0 8.0 0.02 0.42 0.31 93 1008.2
20260507093601 48 287 2.0 8.0 0.02 0.42 0.31 93 1008.1
20260507093100 48 257 1.0 4.0 0.02 0.42 0.31 93 1008.2
20260507092559 48 272 2.0 8.0 0.03 0.42 0.31 93 1008.0
20260507092059 48 267 2.0 8.0 0.04 0.42 0.31 93 1007.8
20260507091600 49 298 1.0 4.0 0.04 0.42 0.31 93 1007.8
20260507091101 49 217 1.0 6.0 0.04 0.41 0.30 94 1008.5
20260507090600 49 248 1.0 6.0 0.07 0.41 0.30 93 1008.3
20260507090100 49 244 1.0 4.0 0.10 0.41 0.30 93 1008.0
20260507085600 49 226 2.0 10.0 0.12 0.41 0.30 93 1007.8
20260507085100 50 254 2.0 10.0 0.15 0.41 0.30 93 1007.4
20260507084601 50 219 3.0 10.0 0.17 0.41 0.30 94 1007.7
20260507084059 51 254 0.0 0.0 0.19 0.40 0.29 94 1007.6
20260507083559 51 0 0.0 0.0 0.24 0.40 0.29 94 1007.4
20260507083120 52 0 0.0 2.0 0.27 0.40 0.29 94 1007.5
20260507082600 52 0 0.0 4.0 0.28 0.39 0.28 94 1007.6
20260507082059 52 360 0.0 4.0 0.27 0.38 0.27 94 1007.5
20260507081605 52 0 0.0 6.0 0.27 0.38 0.27 94 1007.5
20260507081059 52 297 0.0 7.0 0.26 0.37 0.26 94 1007.7
20260507080600 52 274 1.0 7.0 0.23 0.34 0.23 94 1007.6
20260507080059 52 345 2.0 8.0 0.20 0.31 0.20 94 1007.7
20260507075602 52 0 1.0 8.0 0.18 0.29 0.18 93 1008.1
20260507075100 53 273 3.0 7.0 0.15 0.26 0.15 93 1007.6
20260507074616 53 249 2.0 7.0 0.13 0.24 0.13 94 1007.7
20260507074059 54 240 2.0 7.0 0.10 0.21 0.10 93 1007.1
20260507073600 54 16 1.0 7.0 0.05 0.16 0.05 94 1006.8
20260507073102 55 277 2.0 7.0 0.01 0.12 0.01 94 1006.6
20260507072559 55 224 1.0 4.0 0.00 0.11 0.00 94 1006.3
20260507072058 55 294 0.0 2.0 0.00 0.11 0.00 94 1006.1
20260507071600 55 210 0.0 1.0 0.00 0.11 0.00 94 1006.4
20260507071058 55 0 0.0 0.0 0.00 0.11 0.00 94 1006.3
20260507070601 55 0 0.0 0.0 0.00 0.11 0.00 94 1006.4
20260507070104 55 0 0.0 0.0 0.00 0.11 0.00 94 1006.4
20260507065559 55 0 0.0 0.0 0.00 0.11 0.00 94 1006.4
20260507065058 55 0 0.0 0.0 0.00 0.11 0.00 94 1006.4
20260507064602 55 0 0.0 0.0 0.00 0.11 0.00 94 1006.5
20260507064058 55 0 0.0 0.0 0.00 0.11 0.00 94 1006.4
20260507063558 55 0 0.0 0.0 0.00 0.11 0.00 94 1006.5
20260507063100 55 0 0.0 0.0 0.00 0.11 0.00 94 1006.6
20260507062600 55 0 0.0 0.0 0.00 0.11 0.00 94 1006.6
20260507062132 55 0 0.0 0.0 0.00 0.11 0.00 94 1006.5
20260507061601 55 0 0.0 0.0 0.00 0.11 0.00 94 1006.4
20260507061058 55 0 0.0 0.0 0.00 0.11 0.00 94 1006.4
20260507060557 55 0 0.0 0.0 0.00 0.11 0.00 94 1006.6
20260507060105 55 0 0.0 1.0 0.00 0.11 0.00 94 1006.8
20260507055559 55 0 0.0 1.0 0.00 0.11 0.00 94 1006.8
20260507055059 55 0 0.0 0.0 0.00 0.11 0.00 94 1006.8
20260507054559 55 0 0.0 2.0 0.00 0.11 0.00 94 1006.9
20260507054058 55 0 0.0 2.0 0.00 0.11 0.00 94 1007.0
20260507053559 55 0 0.0 2.0 0.00 0.11 0.00 94 1007.0
20260507053100 55 0 0.0 2.0 0.00 0.11 0.00 94 1007.0
20260507052600 55 0 0.0 2.0 0.00 0.11 0.00 94 1007.2
20260507052058 55 0 0.0 2.0 0.00 0.11 0.00 94 1007.2
20260507051601 56 0 0.0 3.0 0.00 0.11 0.00 94 1007.1
20260507051103 56 0 0.0 3.0 0.00 0.11 0.00 94 1007.3
20260507050603 55 0 0.0 3.0 0.00 0.11 0.00 94 1007.4
20260507045601 56 0 0.0 2.0 0.00 0.11 0.00 94 1007.5
20260507045104 55 0 0.0 2.0 0.00 0.11 0.00 94 1007.4
20260507044602 56 0 0.0 2.0 0.00 0.11 0.00 94 1007.2
20260507044104 56 0 0.0 4.0 0.00 0.11 0.00 94 1007.3
20260507043559 56 200 0.0 5.0 0.00 0.11 0.00 94 1007.4
20260507043103 56 171 0.0 5.0 0.00 0.11 0.00 94 1007.2
20260507042559 56 0 0.0 2.0 0.00 0.11 0.00 94 1007.1
20260507042059 56 0 0.0 2.0 0.00 0.11 0.00 94 1007.1
20260507041601 56 207 0.0 2.0 0.00 0.11 0.00 94 1007.0
20260507041058 55 0 0.0 2.0 0.00 0.11 0.00 94 1007.1
20260507040602 55 0 0.0 2.0 0.00 0.11 0.00 94 1007.0
20260507035558 55 0 0.0 2.0 0.00 0.11 0.11 94 1007.1
20260507035058 55 0 0.0 2.0 0.00 0.11 0.11 94 1007.1
20260507034600 55 0 0.0 4.0 0.00 0.11 0.11 94 1007.1
20260507034100 55 0 1.0 4.0 0.00 0.11 0.11 94 1007.3
20260507033559 55 158 0.0 4.0 0.00 0.11 0.11 94 1007.4
20260507033059 55 185 1.0 4.0 0.00 0.11 0.11 94 1007.5
20260507032601 55 0 0.0 2.0 0.00 0.11 0.11 94 1007.5
20260507032100 55 177 0.0 2.0 0.00 0.11 0.11 94 1007.4
20260507031600 55 194 0.0 4.0 0.00 0.11 0.11 94 1007.3
20260507031103 55 0 0.0 5.0 0.00 0.11 0.11 93 1007.4
20260507030559 55 163 1.0 5.0 0.00 0.11 0.11 93 1007.4
20260507030101 55 0 0.0 4.0 0.00 0.11 0.11 93 1007.2
20260507025604 55 0 0.0 4.0 0.00 0.11 0.11 93 1007.2
20260507025058 55 0 1.0 4.0 0.00 0.11 0.11 93 1007.3
20260507024620 55 207 1.0 4.0 0.00 0.11 0.11 93 1007.3
20260507024100 55 148 1.0 4.0 0.00 0.11 0.11 93 1007.3
20260507023604 55 223 1.0 3.0 0.00 0.11 0.11 93 1007.4
20260507023059 55 313 0.0 3.0 0.00 0.11 0.11 93 1007.2
20260507022558 55 0 0.0 5.0 0.00 0.11 0.11 93 1007.2
20260507022059 55 0 0.0 5.0 0.00 0.11 0.11 93 1007.4
20260507021600 55 200 1.0 5.0 0.00 0.11 0.11 93 1007.5
20260507021059 55 0 1.0 4.0 0.00 0.11 0.11 93 1007.4
20260507020559 55 131 0.0 5.0 0.00 0.11 0.11 93 1007.5
20260507020110 55 200 1.0 5.0 0.00 0.11 0.11 93 1007.6
20260507015558 55 0 0.0 4.0 0.00 0.11 0.11 93 1007.6
20260507015100 55 0 0.0 4.0 0.00 0.11 0.11 93 1007.7
20260507014609 55 0 0.0 5.0 0.00 0.11 0.11 93 1007.9
20260507014058 55 0 1.0 5.0 0.00 0.11 0.11 93 1007.8
20260507013558 55 200 1.0 5.0 0.00 0.11 0.11 93 1007.7
20260507013059 55 188 0.0 2.0 0.00 0.11 0.11 93 1007.8
20260507012601 55 0 0.0 4.0 0.00 0.11 0.11 93 1007.8
20260507012058 55 0 0.0 4.0 0.00 0.11 0.11 93 1007.9
20260507011603 55 0 1.0 8.0 0.00 0.11 0.11 93 1007.9
20260507011059 55 50 0.0 8.0 0.00 0.11 0.11 93 1008.0
20260507010559 55 182 0.0 4.0 0.00 0.11 0.11 93 1008.1
20260507010101 55 0 1.0 6.0 0.00 0.11 0.11 93 1008.1
20260507005558 55 164 1.0 6.0 0.00 0.11 0.11 93 1008.0
20260507005058 55 169 1.0 7.0 0.00 0.11 0.11 93 1007.9
20260507004601 55 205 1.0 7.0 0.00 0.11 0.11 93 1007.9
20260507004101 55 0 2.0 7.0 0.00 0.11 0.11 93 1007.9
20260507003558 55 178 1.0 6.0 0.00 0.11 0.11 93 1007.9
20260507003101 55 182 0.0 5.0 0.00 0.11 0.11 93 1008.0
20260507002559 55 157 1.0 5.0 0.00 0.11 0.11 92 1008.0
20260507002102 55 0 1.0 5.0 0.00 0.11 0.11 92 1008.0
20260507001611 55 0 2.0 6.0 0.00 0.11 0.11 92 1008.1
20260507001057 55 240 1.0 6.0 0.00 0.11 0.11 92 1008.0
20260507000601 55 210 1.0 10.0 0.02 0.11 0.11 92 1008.0
20260507000100 55 159 3.0 10.0 0.03 0.11 0.11 92 1008.0
20260506235601 55 266 1.0 8.0 0.04 0.11 0.11 92 1008.1
20260506235058 55 115 2.0 8.0 0.04 0.11 0.11 92 1008.0
20260506234612 55 0 3.0 8.0 0.04 0.11 0.11 92 1008.0
20260506234058 55 0 2.0 5.0 0.04 0.11 0.11 92 1008.0
20260506233603 56 182 1.0 7.0 0.04 0.11 0.11 92 1008.0
20260506233101 55 180 2.0 12.0 0.05 0.11 0.11 92 1008.0
20260506232559 55 180 3.0 12.0 0.05 0.11 0.11 92 1008.0
20260506232059 55 172 2.0 6.0 0.06 0.11 0.11 92 1008.0
20260506231600 56 223 1.0 7.0 0.06 0.11 0.11 92 1008.0
20260506231059 55 313 1.0 8.0 0.06 0.11 0.11 91 1008.0
20260506230558 55 111 2.0 8.0 0.04 0.09 0.09 91 1007.9
20260506225602 56 200 1.0 6.0 0.02 0.07 0.07 91 1007.8
20260506225102 55 0 1.0 5.0 0.02 0.07 0.07 91 1007.7
20260506224600 56 159 1.0 9.0 0.02 0.07 0.07 91 1007.6
20260506224058 56 200 1.0 9.0 0.02 0.07 0.07 91 1007.7
20260506223558 56 0 1.0 8.0 0.02 0.07 0.07 91 1007.8
20260506223100 56 192 2.0 8.0 0.01 0.06 0.06 91 1007.9
20260506222601 56 174 2.0 9.0 0.01 0.06 0.06 90 1007.9
20260506222059 56 212 2.0 13.0 0.00 0.05 0.05 90 1007.9
20260506221558 56 0 3.0 13.0 0.00 0.05 0.05 90 1008.2
20260506221058 56 211 1.0 12.0 0.01 0.05 0.05 90 1008.2
20260506220558 56 215 2.0 12.0 0.01 0.05 0.05 90 1008.2
20260506220058 56 199 3.0 10.0 0.01 0.05 0.05 90 1008.3
20260506215557 56 194 2.0 7.0 0.02 0.05 0.05 90 1008.4
20260506215059 56 192 2.0 7.0 0.02 0.05 0.05 90 1008.3
20260506214558 56 181 2.0 7.0 0.02 0.05 0.05 90 1008.4
20260506214059 56 200 2.0 7.0 0.02 0.05 0.05 90 1008.3
20260506213600 56 153 2.0 7.0 0.02 0.05 0.05 90 1008.4
20260506213139 57 0 1.0 8.0 0.02 0.05 0.05 90 1008.5
20260506212558 56 207 2.0 9.0 0.02 0.05 0.05 89 1008.6
20260506212058 57 180 2.0 10.0 0.02 0.05 0.05 89 1008.4
20260506211625 57 193 3.0 10.0 0.02 0.05 0.05 88 1008.6
20260506211057 57 175 2.0 12.0 0.01 0.04 0.04 88 1008.6
20260506210601 57 198 2.0 13.0 0.01 0.04 0.04 88 1008.6
20260506210126 57 153 3.0 13.0 0.01 0.04 0.04 87 1008.8
20260506205559 57 187 2.0 15.0 0.01 0.03 0.03 87 1008.8
20260506205059 57 219 3.0 15.0 0.02 0.03 0.03 88 1008.7
20260506204601 57 200 3.0 13.0 0.02 0.03 0.03 88 1008.8
20260506204057 57 169 2.0 8.0 0.03 0.03 0.03 88 1008.9
20260506203558 57 142 1.0 10.0 0.03 0.03 0.03 88 1008.9
20260506203105 57 302 2.0 10.0 0.03 0.03 0.03 88 1008.9
20260506202604 57 161 1.0 10.0 0.03 0.03 0.03 88 1008.9
20260506202104 57 0 2.0 13.0 0.03 0.03 0.03 88 1009.0
20260506201610 57 94 3.0 13.0 0.03 0.03 0.03 87 1009.1
20260506201100 57 207 3.0 13.0 0.03 0.03 0.03 87 1009.1
20260506200600 57 222 1.0 8.0 0.03 0.03 0.03 87 1009.1
20260506200103 58 198 1.0 7.0 0.03 0.03 0.03 86 1009.1
20260506195602 58 130 1.0 10.0 0.02 0.02 0.02 85 1009.3
20260506195103 58 167 2.0 11.0 0.01 0.01 0.01 84 1009.3
20260506194623 59 219 3.0 11.0 0.01 0.01 0.01 83 1009.4
20260506194100 59 114 2.0 8.0 0.00 0.00 0.00 81 1009.5
20260506193601 60 219 2.0 9.0 0.00 0.00 0.00 80 1009.5
20260506193102 60 164 3.0 9.0 0.00 0.00 0.00 78 1009.5
20260506192559 61 160 1.0 11.0 0.00 0.00 0.00 77 1009.4
20260506192058 61 165 2.0 11.0 0.00 0.00 0.00 76 1009.3
20260506191607 61 188 3.0 11.0 0.00 0.00 0.00 76 1009.5
20260506191059 61 142 3.0 11.0 0.00 0.00 0.00 76 1009.4
20260506190558 61 213 3.0 11.0 0.00 0.00 0.00 76 1009.5
20260506190100 61 224 3.0 10.0 0.00 0.00 0.00 75 1009.5
20260506185557 61 0 2.0 10.0 0.00 0.00 0.00 76 1009.5
20260506185102 61 129 3.0 10.0 0.00 0.00 0.00 75 1009.2
20260506184609 62 136 3.0 14.0 0.00 0.00 0.00 75 1009.4
20260506184101 62 182 3.0 14.0 0.00 0.00 0.00 75 1009.5
20260506183600 62 107 4.0 13.0 0.00 0.00 0.00 74 1009.6
20260506183103 62 175 4.0 13.0 0.00 0.00 0.00 74 1009.6
20260506182601 62 200 4.0 14.0 0.00 0.00 0.00 74 1009.6
20260506182059 63 193 4.0 14.0 0.00 0.00 0.00 73 1009.7
20260506181601 63 135 2.0 12.0 0.00 0.00 0.00 73 1009.5
20260506181059 63 136 4.0 12.0 0.00 0.00 0.00 73 1009.7
20260506180557 63 151 2.0 12.0 0.00 0.00 0.00 73 1009.8
20260506175558 63 172 3.0 13.0 0.00 0.00 0.00 72 1010.0
20260506175057 64 180 4.0 13.0 0.00 0.00 0.00 71 1010.1
20260506174559 64 159 3.0 11.0 0.00 0.00 0.00 71 1010.1
20260506174059 65 229 4.0 18.0 0.00 0.00 0.00 71 1010.3
20260506173601 64 168 5.0 18.0 0.00 0.00 0.00 71 1010.4
20260506173109 65 182 5.0 17.0 0.00 0.00 0.00 70 1010.4
20260506172603 65 223 4.0 18.0 0.00 0.00 0.00 71 1010.4
20260506172058 65 217 5.0 18.0 0.00 0.00 0.00 70 1010.4
20260506171558 65 97 5.0 17.0 0.00 0.00 0.00 70 1010.2
20260506171105 65 144 4.0 15.0 0.00 0.00 0.00 70 1010.4
20260506170600 66 169 5.0 15.0 0.00 0.00 0.00 68 1010.3
20260506170115 67 194 2.0 18.0 0.00 0.00 0.00 70 1010.3
20260506165558 65 115 3.0 19.0 0.00 0.00 0.00 69 1010.6
20260506165058 66 276 4.0 19.0 0.00 0.00 0.00 69 1010.7
20260506164601 66 124 3.0 12.0 0.00 0.00 0.00 70 1010.5
20260506164057 66 211 2.0 12.0 0.00 0.00 0.00 69 1010.5
20260506163600 66 221 2.0 10.0 0.00 0.00 0.00 69 1010.6
20260506163112 66 206 2.0 13.0 0.00 0.00 0.00 70 1010.8
20260506162557 65 227 3.0 15.0 0.00 0.00 0.00 69 1010.6
20260506162100 65 167 5.0 15.0 0.00 0.00 0.00 69 1010.9
20260506161601 66 232 2.0 10.0 0.00 0.00 0.00 69 1011.1
20260506161100 66 155 2.0 17.0 0.00 0.00 0.00 69 1011.1
20260506160601 65 236 3.0 18.0 0.00 0.00 0.00 70 1011.1
20260506160107 65 54 5.0 18.0 0.00 0.00 0.00 69 1011.2
20260506155600 66 165 3.0 15.0 0.00 0.00 0.00 69 1011.3
20260506155059 66 327 5.0 15.0 0.00 0.00 0.00 68 1011.2
20260506154604 66 204 2.0 12.0 0.00 0.00 0.00 69 1011.2
20260506154058 66 222 4.0 20.0 0.00 0.00 0.00 69 1011.2
20260506153558 66 142 3.0 20.0 0.00 0.00 0.00 69 1011.3
20260506153058 65 153 4.0 13.0 0.00 0.00 0.00 69 1011.4
20260506152558 67 128 2.0 11.0 0.00 0.00 0.00 69 1011.3
20260506152101 65 167 4.0 11.0 0.00 0.00 0.00 70 1011.4
20260506151558 65 292 3.0 10.0 0.00 0.00 0.00 70 1011.5
20260506151103 65 194 1.0 10.0 0.00 0.00 0.00 71 1011.4
20260506150601 64 128 4.0 10.0 0.00 0.00 0.00 72 1011.5
20260506150101 64 217 3.0 10.0 0.00 0.00 0.00 71 1011.6